Regional Weather Roundup
Issued by NWS

Home | Current Version | Previous Version | Text Only | Print | Product List | Glossary On
Versions: 1 2 3 4 5 6 7 8 9 10 11 12 13 14 15 16 17 18 19 20 21 22 23 24 25 26 27 28 29 30 31 32 33 34 35 36 37 38 39 40 41 42 43 44 45 46 47 48 49 50
000
ASUS46 KSEW 251510
RWRWA

WASHINGTON REGIONAL WEATHER ROUNDUP
NATIONAL WEATHER SERVICE SEATTLE WA
800 AM PDT TUE APR 25 2017

NOTE:"FAIR" INDICATES FEW OR NO CLOUDS BELOW 12,000 FEET WITH NO
SIGNIFICANT WEATHER AND/OR OBSTRUCTIONS TO VISIBILITY.

WAZ507-509-555>559-251600-
SEATTLE, TACOMA, EVERETT, AND VICINITY

CITY           SKY/WX    TMP DP  RH WIND       PRES   REMARKS
EVERETT        CLOUDY    48  41  76 SE14      29.96R
BOEING FIELD   CLOUDY    50  44  80 S7        29.99R
RENTON         CLOUDY    50  44  80 SE6       29.99R
SEATAC AIRPORT CLOUDY    49  44  83 S9        29.99R
JBLM-MCCHORD   CLOUDY    48  47  97 SW7       30.00R
PUYALLUP         N/A     48  45  87 S5        30.00R
BREMERTON      NOT AVBL
JBLM-FT LEWIS  PTSUNNY   48  43  81 S5        30.03R
TACOMA NARROWS CLOUDY    47  44  90 S8        30.00R
$$

WAZ001-503-506-510-514-515-251600-
NORTH INTERIOR

CITY           SKY/WX    TMP DP  RH WIND       PRES   REMARKS
BELLINGHAM     CLOUDY    50  44  80 S12       29.93S
FRIDAY HARBOR  CLOUDY    49  48  97 E5        29.95R
EASTSOUND      CLOUDY    48  45  87 SW7       29.92S
PORT ANGELES   PTSUNNY   46  41  82 CALM      29.93S
EDIZ HOOK      PTSUNNY   48  42  79 S3        29.94S
PORT TOWNSEND  CLOUDY    48  45  87 CALM      29.96S
NAS WHIDBEY    CLOUDY    51  42  71 SE13      29.98S
ARLINGTON      CLOUDY    50  37  62 SE13      29.99R
BURLINGTON     CLOUDY    48  45  87 SE8G15    29.96S
$$

WAZ020-022-039-040-504-511-512-251600-
SOUTHWEST INTERIOR

CITY           SKY/WX    TMP DP  RH WIND       PRES   REMARKS
SHELTON        CLOUDY    48  44  86 CALM      29.96F
OLYMPIA        CLOUDY    47  45  93 S6        29.99S
CHEHALIS       PTSUNNY   48  45  87 S7        29.99F
KELSO          CLOUDY    48  45  89 SE6       30.02F
VANCOUVER      CLOUDY    49  46  90 SE5       30.02S
SCAPPOOSE, OR  CLOUDY    46  45  96 CALM      30.01F
PORTLAND, OR   CLOUDY    48  44  86 SE6       30.03S
$$

WAZ021-516-517-251600-
WASHINGTON COAST

CITY           SKY/WX    TMP DP  RH WIND       PRES   REMARKS
FORKS          CLOUDY    46  45  96 SE7       29.90F
HOQUIAM        CLOUDY    47  46  97 E10       29.94F
ASTORIA, OR    CLOUDY    46  42  86 E7        29.95F
$$

WAZ019-023-024-040-567>569-251600-
CASCADE MOUNTAINS AND COLUMBIA GORGE

CITY           SKY/WX    TMP DP  RH WIND       PRES   REMARKS
STAMPEDE PASS  FOG       34  34 100 VRB5      29.90R VSB 1/4
TROUTDALE, OR  CLOUDY    49  46  90 E7        30.03S
THE DALLES, OR MOSUNNY   51  41  68 W15       30.00R
$$

WAZ026-027-041>044-520-521-251600-
EAST SLOPES

CITY           SKY/WX    TMP DP  RH WIND       PRES   REMARKS
OMAK           SUNNY     47  36  65 NE6       29.87R
WENATCHEE      SUNNY     49  34  56 NW12      29.88R
ELLENSBURG     SUNNY     48  35  60 NW18      29.89R
YAKIMA         SUNNY     51  36  56 CALM      29.91R
SUNNYSIDE ARPT SUNNY     45  38  77 CALM      29.92S
$$

WAZ028-034-035-251600-
COLUMBIA BASIN

CITY           SKY/WX    TMP DP  RH WIND       PRES   REMARKS
EPHRATA        SUNNY     42  36  79 N3        29.87R
MOSES LAKE     SUNNY     46  39  76 S6        29.88R
PASCO          SUNNY     51  39  63 S13       29.93R
HERMISTON, OR  SUNNY     50  41  71 SW17G23   29.94R
$$

WAZ036>038-251600-
NORTHEAST WASHINGTON

CITY           SKY/WX    TMP DP  RH WIND       PRES   REMARKS
SPOKANE GEIGER FOG       42  40  92 S14       29.86S VSB 1/2
SPOKANE FELTS  CLOUDY    46  42  86 SW8       29.88R
FAIRCHILD AFB  CLOUDY    41  41 100 SW10      29.86R
COEURDALENE,ID CLOUDY    44  42  93 SW7       29.87R
DEER PARK      CLOUDY    41  38  89 CALM      29.87R
$$

WAZ029>033-251600-
SOUTHEAST WASHINGTON

CITY           SKY/WX    TMP DP  RH WIND       PRES   REMARKS
PULLMAN        CLOUDY    42  39  89 W9        29.91R
LEWISTON, ID   CLOUDY    48  43  82 S5        29.91R
WALLA WALLA    CLOUDY    48  41  76 S14       29.95R
PENDLETON, OR  PTSUNNY   47  38  71 VRB5      29.94R
$$



USA.gov is the U.S. government's official web portal to all federal, state and local government web resources and services.